Grafton, ND

3:13 AM CST on February 06, 2016 (GMT -0600)
Grafton Municipal

Weather History for KGAF - September, 2012

Change the Weather History Date:

Sunday, September 30, 2012

  Actual Average Record
Temperature  
Mean Temperature 62 °F -  
Max Temperature 80 °F 68 °F 91 °F (1976)
Min Temperature 44 °F 40 °F 26 °F (1956)
Degree Days  
Heating Degree Days 3    
Growing Degree Days 12 (Base 50)    
Moisture  
Dew Point 39 °F    
Average Humidity 45    
Maximum Humidity 61    
Minimum Humidity 30    
Precipitation  
Precipitation 0.00 in - - ()
Sea Level Pressure  
Sea Level Pressure 29.87 in    
Wind  
Wind Speed 10 mph (WSW)    
Max Wind Speed 22 mph    
Max Gust Speed 29 mph    
Visibility 10 miles    
Events      
Averages and records for this station are not official NWS values.
T = Trace of Precipitation, MM = Missing Value Source: NWS Daily Summary

Daily Weather History Graph

Daily Weather History Graph

Search for Another Location

Airport or City:

Trip Planner

Search our weather history database for the weather conditions in past years. The results will help you decide how hot, cold, wet, or windy it might be!

Date:

Astronomy

Sep. 30, 2012 Rise Set
Actual Time 7:28 AM CDT 7:09 PM CDT
Civil Twilight 6:57 AM CDT 7:40 PM CDT
Nautical Twilight 6:20 AM CDT 8:16 PM CDT
Astronomical Twilight 5:43 AM CDT 8:53 PM CDT
Moon 7:05 PM CDT (9/30) 8:07 AM CDT (9/30)
Length of Visible Light 12h 43m
Length of Day
11h 41m
Full, 100% of the Moon is Illuminated
Sep 30
Full
Oct 8
Last Quarter
Oct 15
New
Oct 21
First Quarter
Oct 29
Full

Hourly Weather History & Observations

Time (CDT) Temp. Windchill Dew Point Humidity Pressure Visibility Wind Dir Wind Speed Gust Speed Precip Events Conditions
12:15 AM 51.8 °F - 32.0 °F 47% 29.92 in 10.0 mi South 8.1 mph - N/A   Clear
12:55 AM 50.0 °F - 32.0 °F 50% 29.91 in 10.0 mi South 6.9 mph - N/A   Clear
1:15 AM 51.8 °F - 32.0 °F 47% 29.91 in 10.0 mi South 9.2 mph - N/A   Clear
1:35 AM 50.0 °F - 32.0 °F 50% 29.91 in 10.0 mi South 8.1 mph - N/A   Clear
1:55 AM 48.2 °F - 32.0 °F 54% 29.90 in 10.0 mi South 6.9 mph - N/A   Clear
2:15 AM 48.2 °F - 32.0 °F 54% 29.90 in 10.0 mi South 8.1 mph - N/A   Clear
2:35 AM 48.2 °F - 32.0 °F 54% 29.90 in 10.0 mi South 9.2 mph - N/A   Clear
2:55 AM 48.2 °F - 32.0 °F 54% 29.89 in 10.0 mi South 9.2 mph - N/A   Clear
3:15 AM 48.2 °F - 32.0 °F 54% 29.89 in 10.0 mi South 9.2 mph - N/A   Clear
3:35 AM 50.0 °F - 32.0 °F 50% 29.89 in 10.0 mi South 6.9 mph - N/A   Clear
3:55 AM 48.2 °F - 32.0 °F 54% 29.89 in 10.0 mi South 6.9 mph - N/A   Clear
4:15 AM 48.2 °F - 32.0 °F 54% 29.88 in 10.0 mi South 6.9 mph - N/A   Clear
4:35 AM 48.2 °F - 32.0 °F 54% 29.88 in 10.0 mi South 6.9 mph - N/A   Clear
4:55 AM 48.2 °F - 32.0 °F 54% 29.87 in 10.0 mi South 8.1 mph - N/A   Clear
5:15 AM 48.2 °F - 32.0 °F 54% 29.86 in 10.0 mi South 9.2 mph - N/A   Clear
5:35 AM 48.2 °F - 32.0 °F 54% 29.86 in 10.0 mi SSE 8.1 mph - N/A   Clear
5:55 AM 46.4 °F 43.5 °F 32.0 °F 57% 29.85 in 9.0 mi SSE 5.8 mph - N/A   Clear
6:15 AM 46.4 °F 42.4 °F 32.0 °F 57% 29.85 in 10.0 mi South 8.1 mph - N/A   Clear
6:35 AM 46.4 °F 42.4 °F 32.0 °F 57% 29.85 in 10.0 mi SSE 8.1 mph - N/A   Clear
6:55 AM 44.6 °F 39.7 °F 32.0 °F 61% 29.84 in 10.0 mi South 9.2 mph - N/A   Clear
7:15 AM 46.4 °F 42.4 °F 32.0 °F 57% 29.84 in 10.0 mi South 8.1 mph - N/A   Clear
7:35 AM 48.2 °F - 32.0 °F 54% 29.84 in 10.0 mi South 10.4 mph - N/A   Clear
7:55 AM 48.2 °F - 32.0 °F 54% 29.84 in 9.0 mi South 6.9 mph - N/A   Clear
8:15 AM 48.2 °F - 33.8 °F 58% 29.84 in 9.0 mi South 9.2 mph - N/A   Clear
8:35 AM 50.0 °F - 35.6 °F 58% 29.84 in 10.0 mi South 6.9 mph - N/A   Clear
8:55 AM 51.8 °F - 35.6 °F 54% 29.84 in 10.0 mi South 10.4 mph - N/A   Clear
9:15 AM 55.4 °F - 35.6 °F 47% 29.85 in 10.0 mi South 8.1 mph - N/A   Clear
9:35 AM 57.2 °F - 37.4 °F 48% 29.85 in 9.0 mi South 8.1 mph - N/A   Clear
9:55 AM 60.8 °F - 37.4 °F 42% 29.85 in 10.0 mi SSW 6.9 mph - N/A   Clear
10:15 AM 62.6 °F - 39.2 °F 42% 29.85 in 10.0 mi SSW 6.9 mph - N/A   Clear
10:35 AM 64.4 °F - 39.2 °F 40% 29.85 in 10.0 mi SSW 6.9 mph - N/A   Clear
10:55 AM 68.0 °F - 41.0 °F 37% 29.84 in 10.0 mi South 8.1 mph - N/A   Clear
11:15 AM 71.6 °F - 44.6 °F 38% 29.84 in 10.0 mi SW 8.1 mph - N/A   Clear
11:35 AM 73.4 °F - 44.6 °F 36% 29.83 in 10.0 mi SW 9.2 mph - N/A   Clear
11:55 AM 75.2 °F - 44.6 °F 34% 29.82 in 10.0 mi SW 8.1 mph - N/A   Clear
12:15 PM 77.0 °F - 46.4 °F 34% 29.82 in 10.0 mi WSW 10.4 mph - N/A   Clear
12:35 PM 77.0 °F - 46.4 °F 34% 29.81 in 10.0 mi WSW 11.5 mph - N/A   Clear
12:55 PM 80.6 °F - 46.4 °F 30% 29.81 in 10.0 mi West 13.8 mph 17.3 mph N/A   Clear
1:15 PM 80.6 °F - 46.4 °F 30% 29.81 in 10.0 mi West 12.7 mph - N/A   Clear
1:35 PM 80.6 °F - 46.4 °F 30% 29.80 in 10.0 mi West 12.7 mph - N/A   Clear
1:55 PM 80.6 °F - 46.4 °F 30% 29.80 in 10.0 mi West 15.0 mph 21.9 mph N/A   Clear
2:15 PM 77.0 °F - 46.4 °F 34% 29.80 in 10.0 mi West 16.1 mph 21.9 mph N/A   Clear
2:35 PM 77.0 °F - 46.4 °F 34% 29.80 in 9.0 mi WNW 16.1 mph 21.9 mph N/A   Clear
3:15 PM 77.0 °F - 46.4 °F 34% 29.80 in 10.0 mi WNW 17.3 mph - N/A   Clear
3:35 PM 75.2 °F - 48.2 °F 38% 29.81 in 10.0 mi West 17.3 mph 24.2 mph N/A   Clear
3:55 PM 75.2 °F - 48.2 °F 38% 29.81 in 10.0 mi NW 16.1 mph 21.9 mph N/A   Clear
4:15 PM 75.2 °F - 46.4 °F 36% 29.81 in 10.0 mi WNW 17.3 mph 24.2 mph N/A   Clear
4:35 PM 75.2 °F - 46.4 °F 36% 29.82 in 10.0 mi NNW 16.1 mph - N/A   Clear
4:55 PM 75.2 °F - 46.4 °F 36% 29.82 in 10.0 mi NNW 16.1 mph 20.7 mph N/A   Clear
5:15 PM 75.2 °F - 46.4 °F 36% 29.83 in 5.0 mi NNW 16.1 mph 21.9 mph N/A   Haze
5:35 PM 75.2 °F - 48.2 °F 38% 29.83 in 5.0 mi NNW 13.8 mph 18.4 mph N/A   Haze
5:55 PM 73.4 °F - 48.2 °F 41% 29.84 in 8.0 mi NNW 17.3 mph 24.2 mph N/A   Clear
6:15 PM 73.4 °F - 48.2 °F 41% 29.85 in 10.0 mi NNW 15.0 mph 24.2 mph N/A   Clear
6:35 PM 69.8 °F - 48.2 °F 46% 29.85 in 9.0 mi North 17.3 mph 26.5 mph N/A   Clear
6:55 PM 68.0 °F - 44.6 °F 43% 29.86 in 10.0 mi North 19.6 mph 24.2 mph N/A   Clear
7:15 PM 68.0 °F - 42.8 °F 40% 29.88 in 10.0 mi NNW 18.4 mph 23.0 mph N/A   Clear
7:35 PM 66.2 °F - 41.0 °F 40% 29.89 in 10.0 mi NNW 16.1 mph 23.0 mph N/A   Clear
7:55 PM 66.2 °F - 39.2 °F 37% 29.90 in 10.0 mi NNW 16.1 mph 25.3 mph N/A   Clear
8:15 PM 64.4 °F - 39.2 °F 40% 29.91 in 10.0 mi NNW 17.3 mph 24.2 mph N/A   Clear
8:35 PM 64.4 °F - 39.2 °F 40% 29.92 in 10.0 mi North 17.3 mph 27.6 mph N/A   Clear
8:55 PM 62.6 °F - 39.2 °F 42% 29.93 in 10.0 mi NNW 21.9 mph 28.8 mph N/A   Clear
9:15 PM 60.8 °F - 39.2 °F 45% 29.93 in 10.0 mi North 12.7 mph 21.9 mph N/A   Clear
9:35 PM 60.8 °F - 39.2 °F 45% 29.94 in 10.0 mi NNW 15.0 mph 19.6 mph N/A   Clear
9:55 PM 59.0 °F - 39.2 °F 48% 29.94 in 10.0 mi NNW 16.1 mph 21.9 mph N/A   Clear
10:15 PM 59.0 °F - 39.2 °F 48% 29.95 in 10.0 mi NNW 15.0 mph 21.9 mph N/A   Clear
10:35 PM 59.0 °F - 39.2 °F 48% 29.96 in 10.0 mi NNW 13.8 mph 21.9 mph N/A   Clear
11:15 PM 57.2 °F - 39.2 °F 51% 29.97 in 10.0 mi NNW 9.2 mph - N/A   Clear
11:35 PM 57.2 °F - 41.0 °F 55% 29.97 in 10.0 mi NNW 10.4 mph - N/A   Clear
11:55 PM 55.4 °F - 41.0 °F 58% 29.98 in 10.0 mi NW 10.4 mph - N/A   Clear